Terminal Aerodrome Forecast
Issued by NWS

Home | Current Version | Previous Version | Text Only | Print | Product List | Glossary Off
Versions: 1 2 3 4 5 6 7 8 9 10 11 12 13 14 15 16 17 18 19 20 21 22 23 24 25 26 27 28 29 30 31 32 33

000
FTUS43 KABR 281500 AAB
TAFMBG
TAF AMD
KMBG 281502Z 2815/2912 14007KT 6SM -RA BR OVC004
     FM282100 14006KT P6SM OVC035
     FM290600 VRB06KT 2SM BR SKC=

USA.gov is the U.S. government's official web portal to all federal, state and local government web resources and services.